This is the latest recevied weather packets stored in our database for station/object KI4HRG. If no packets are shown the sender has not sent any weather packets the latest 10 day(s).
| Time | Temp. | Humidity | Pressure | Rain* | Wind** | Luminosity | Snow |
|---|---|---|---|---|---|---|---|
| 1787601518 | 34.44° C | 48% | 1014.7 hPa | 0 mm | - | 521 W/m² | - |
| 1787601218 | 34.44° C | 47% | 1014.8 hPa | 0 mm | - | 505 W/m² | - |
| 1787600916 | 34.44° C | 48% | 1014.8 hPa | 0 mm | - | 495 W/m² | - |
| 1787600611 | 33.89° C | 50% | 1014.8 hPa | 0 mm | - | 634 W/m² | - |
| 1787600307 | 33.89° C | 51% | 1014.9 hPa | 0 mm | - | 636 W/m² | - |
| 1787600003 | 33.33° C | 51% | 1015 hPa | 0 mm | - | 612 W/m² | - |
| 1787599700 | 33.33° C | 52% | 1015 hPa | 0 mm | - | 270 W/m² | - |
| 1787599396 | 33.89° C | 51% | 1015.1 hPa | 0 mm | - | 482 W/m² | - |
| 1787599092 | 34.44° C | 50% | 1015.1 hPa | 0 mm | - | 567 W/m² | - |
| 1787598787 | 33.89° C | 50% | 1015 hPa | 0 mm | - | 720 W/m² | - |
| 1787598483 | 33.89° C | 51% | 1015.3 hPa | 0 mm | - | 218 W/m² | - |
| 1787598178 | 33.33° C | 53% | 1015.5 hPa | 0 mm | - | 428 W/m² | - |
| 1787597873 | 32.78° C | 54% | 1015.3 hPa | 0 mm | - | 623 W/m² | - |
| 1787597572 | 33.33° C | 54% | 1015.5 hPa | 0 mm | - | 165 W/m² | - |
| 1787597272 | 33.89° C | 50% | 1015.4 hPa | 0 mm | - | 214 W/m² | - |
| 1787596967 | 33.89° C | 51% | 1015.5 hPa | 0 mm | - | 537 W/m² | - |
| 1787596664 | 33.33° C | 50% | 1015.5 hPa | 0 mm | - | 156 W/m² | - |
| 1787596358 | 35° C | 49% | 1015.5 hPa | 0 mm | - | 168 W/m² | - |
| 1787596054 | 34.44° C | 50% | 1015.7 hPa | 0 mm | - | 672 W/m² | - |
| 1787595750 | 34.44° C | 51% | 1015.8 hPa | 0 mm | - | 631 W/m² | - |
| 1787595445 | 34.44° C | 52% | 1015.9 hPa | 0 mm | - | 681 W/m² | - |
| 1787595140 | 34.44° C | 50% | 1016 hPa | 0 mm | - | 745 W/m² | - |
| 1787594835 | 33.89° C | 52% | 1015.9 hPa | 0 mm | - | 747 W/m² | - |
| 1787594529 | 33.89° C | 52% | 1016 hPa | 0 mm | - | 702 W/m² | - |
| 1787594228 | 34.44° C | 53% | 1016.1 hPa | 0 mm | - | 665 W/m² | - |
* Rain latest hour (hover to see other rain measurements)
** Current wind speed in m/s (hover to see current wind gust speed)